Wind_Speed
26 23 23 27 26 29 26 31 36 39 33 32 31 29 26 20 19 19 17 20 17 18 17 16 16 12 17 12 14 13 11 9 6 6 3 3 4 1 4 7 13 18 17
29 27 27 28 32 32 27 27 35 40 36 34 33 30 30 27 17 16 20 19 19 19 19 19 15 14 16 14 13 11 9 7 5 6 3 4 7 5 7 8 7 12 15
25 29 33 37 30 32 25 23 30 36 36 33 30 32 34 31 20 20 22 15 15 17 16 16 17 15 17 17 14 14 11 9 7 6 2 3 4 9 13 11 5 7 12
23 30 27 28 31 26 22 24 28 30 32 27 33 30 34 30 23 19 17 16 14 14 15 16 15 12 14 16 13 11 12 9 8 4 6 4 2 4 4 11 12 11 10
22 21 18 20 19 20 20 18 21 24 24 23 27 26 30 25 18 18 19 17 15 15 15 14 13 12 12 17 12 12 14 10 8 5 4 7 6 7 5 5 14 14 11
16 14 14 17 17 12 12 14 15 18 19 20 22 26 25 20 22 18 19 15 8 7 12 11 11 11 10 17 16 11 12 14 9 8 7 6 2 3 4 7 9 12 14
15 11 10 13 16 15 12 13 15 16 17 22 27 21 20 18 19 18 15 11 11 10 11 7 9 11 9 11 17 17 16 16 15 10 6 6 7 5 5 6 4 8 8
14 13 12 12 18 18 18 15 16 19 19 22 18 17 16 14 10 9 13 15 12 9 10 7 7 8 9 9 14 16 15 12 14 14 9 10 8 8 6 4 2 5 7
18 18 16 14 15 20 18 16 21 21 19 15 15 15 15 11 12 4 11 7 8 5 1 2 6 5 7 10 10 12 15 15 12 9 13 12 6 11 9 6 9 5 5
17 21 17 17 16 16 17 18 19 19 16 13 11 12 13 12 11 13 12 8 7 4 1 2 2 4 5 5 8 10 12 13 10 8 9 8 10 10 11 10 8 9 10
18 21 18 18 17 17 19 16 18 19 17 18 13 11 8 6 9 10 7 7 4 1 2 2 4 4 4 5 5 7 9 12 13 13 13 12 11 14 12 12 12 9 11
21 18 17 19 18 19 19 20 17 16 13 13 16 12 11 11 6 6 5 4 1 4 2 0 2 2 5 6 5 6 6 7 8 10 12 14 12 13 18 17 13 15 14
18 18 18 20 20 22 21 20 18 19 16 15 18 15 12 10 7 8 6 4 9 6 4 1 3 5 3 2 2 2 3 3 5 7 8 10 14 14 14 19 21 18 17
19 16 19 21 20 20 23 22 19 18 18 19 17 15 11 8 10 10 6 6 6 6 5 3 5 4 2 5 4 5 4 3 5 4 2 6 10 11 12 13 15 16 20
19 19 21 23 23 22 22 21 20 18 19 23 19 11 12 17 15 12 10 5 5 5 4 4 2 3 8 7 8 7 4 4 4 3 2 3 4 5 6 8 8 9 9
21 21 24 28 27 25 24 22 22 19 24 16 20 17 15 19 17 14 11 10 8 6 6 5 4 8 9 7 7 10 5 2 2 3 5 3 9 7 9 11 14 14 14
20 23 29 30 29 28 25 24 22 22 21 18 19 20 20 18 16 13 11 9 7 6 7 6 4 11 9 8 6 6 8 7 7 7 8 4 7 11 12 12 11 7 10
19 24 27 29 29 29 26 25 22 26 22 24 22 22 23 19 17 12 11 10 8 5 5 5 6 10 6 7 5 6 9 4 5 4 3 12 15 13 16 17 17 14 9
18 22 24 28 30 31 27 26 26 28 28 28 27 27 24 20 16 16 15 12 10 8 6 6 5 9 3 3 3 7 6 4 10 6 8 11 10 8 8 9 10 10 9
12 18 19 27 32 32 28 29 29 30 32 30 27 24 22 19 15 15 16 13 10 7 8 7 9 9 5 4 4 5 8 3 3 8 10 11 12 7 7 6 7 4 8
9 11 17 25 28 29 28 28 31 31 32 26 25 25 29 20 20 20 18 11 10 13 11 10 7 5 4 3 5 5 7 8 6 7 12 10 11 11 9 8 7 6 5
9 12 15 19 19 23 24 26 28 29 29 27 30 31 23 23 22 17 19 17 17 15 9 7 3 3 4 7 5 4 5 5 8 4 12 14 12 9 7 4 2 0 3
10 12 13 15 18 23 26 27 28 25 24 27 29 25 22 19 19 21 23 22 18 15 13 11 8 1 13 12 7 5 4 4 9 12 12 12 9 7 3 3 2 2 2
10 12 14 17 20 21 21 21 21 21 23 27 27 24 22 20 16 18 18 14 12 10 3 4 5 6 13 16 10 3 2 4 5 8 6 4 3 6 5 5 4 3 2
11 10 13 19 19 18 18 19 20 22 25 24 21 21 19 17 16 19 18 16 12 11 10 9 7 11 14 14 14 11 9 10 10 9 6 3 4 4 2 2 2 3 2
9 12 14 16 17 19 20 21 21 25 26 23 20 22 21 21 18 19 18 15 13 12 14 14 15 16 19 17 16 15 11 10 9 5 5 5 8 6 5 5 4 6 4
Wind_Direction
192 196 202 206 198 204 209 210 212 205 208 212 217 224 214 218 235 247 260 267 270 273 272 269 254 247 225 215 227 221 228 240 250 237 276 118 199 222 207 206 191 197 201
187 184 208 202 195 204 211 211 212 213 216 219 222 222 223 221 227 241 246 259 264 269 269 265 257 252 230 215 219 209 213 205 182 253 238 160 144 186 201 204 196 199 202
178 194 185 194 202 204 210 219 223 220 217 226 229 232 226 232 227 242 240 255 266 270 261 261 260 254 227 222 212 223 195 186 188 217 220 161 167 169 192 195 227 196 187
184 177 173 180 189 192 195 212 227 225 226 234 232 227 223 231 238 242 250 252 258 259 256 260 265 241 221 209 210 207 199 207 210 222 226 169 180 146 180 201 204 220 202
150 165 168 172 174 193 199 211 227 233 222 225 223 215 220 220 237 235 247 250 247 257 262 263 255 237 220 206 200 206 210 203 220 199 224 197 208 201 209 210 210 216 203
111 118 125 135 152 174 209 219 207 210 204 207 207 197 205 213 222 228 233 240 250 279 280 259 242 239 227 211 205 195 223 198 197 233 225 233 194 159 215 216 201 228 216
118 131 151 161 159 166 180 185 192 192 187 185 182 198 215 212 215 222 229 213 228 245 275 255 261 246 223 208 201 206 214 206 200 210 239 219 207 238 264 248 201 216 228
144 158 167 173 173 168 172 176 182 174 175 179 202 215 218 213 202 223 226 219 213 240 239 267 254 229 225 218 211 216 215 218 208 216 215 242 227 214 200 271 194 162 199
158 157 161 173 172 167 170 172 178 170 184 203 209 215 220 206 198 202 237 240 233 227 208 292 253 247 224 221 221 217 218 216 222 225 222 225 229 223 211 255 262 241 214
149 151 159 169 181 185 181 172 179 190 193 204 223 238 222 194 191 173 176 195 230 226 240 251 241 280 262 235 229 221 217 214 209 218 251 241 207 242 241 225 224 259 275
149 146 159 168 179 185 174 181 174 191 200 204 203 217 205 197 201 205 216 210 239 298 310 268 228 198 211 238 233 229 221 221 215 206 227 238 222 219 218 241 244 248 266
140 147 161 165 176 184 182 182 185 194 183 192 187 197 198 205 203 197 175 213 41 54 346 65 173 174 197 214 226 216 213 218 220 218 231 242 242 233 224 232 245 235 246
146 158 164 167 176 179 184 182 184 192 189 193 186 186 193 196 154 154 138 186 169 134 147 266 76 120 152 174 185 187 209 228 236 232 221 232 238 241 230 240 247 245 247
152 167 166 169 177 175 177 179 186 190 190 184 195 201 171 180 153 158 204 180 155 161 163 141 129 97 128 157 139 89 67 64 62 67 148 228 237 241 245 240 243 245 249
164 170 167 166 170 176 179 183 186 193 185 190 178 178 168 170 184 182 177 190 122 171 154 129 194 128 232 222 211 194 146 235 185 162 21 268 248 247 237 238 242 240 240
170 171 167 168 173 181 182 183 183 189 180 192 177 168 185 189 202 203 191 193 198 187 168 184 156 218 246 246 245 220 180 300 303 189 206 290 276 262 249 247 253 255 255
184 176 170 173 176 185 184 187 188 180 180 181 181 182 190 200 210 200 198 199 199 201 178 174 185 246 264 263 234 200 169 178 226 226 215 180 219 224 245 257 272 279 263
187 180 180 183 188 190 185 190 191 194 195 192 185 189 199 211 211 213 211 206 215 221 213 211 213 262 273 247 230 204 216 160 260 235 231 234 252 244 253 263 270 260 242
186 186 189 187 184 183 185 189 194 196 200 200 200 202 208 206 211 214 215 217 224 225 223 220 210 263 268 245 207 178 138 230 256 243 248 272 290 298 288 273 268 267 259
182 189 195 189 185 186 190 191 197 200 206 206 206 213 209 203 213 212 213 218 211 206 200 226 227 243 256 241 236 211 207 172 251 264 293 301 303 310 304 285 264 241 254
177 180 190 181 180 188 192 194 202 207 213 218 223 216 200 212 211 211 217 209 182 202 197 207 246 217 287 281 278 250 215 194 171 290 279 287 302 312 308 294 281 275 261
165 169 171 163 172 185 196 198 205 220 222 216 208 198 207 206 211 222 223 222 205 204 204 238 276 292 314 303 280 264 237 216 191 203 270 280 303 310 313 314 303 76 113
170 177 180 181 185 204 212 216 218 224 214 209 199 202 207 210 231 243 239 227 216 246 254 257 237 275 301 307 303 298 275 243 215 231 260 285 291 300 314 25 81 129 109
174 181 182 184 187 206 217 221 222 211 205 200 205 211 218 234 227 223 222 222 228 217 183 213 167 220 258 288 286 283 1 323 267 259 281 348 16 24 55 46 46 15 1
181 181 181 189 183 202 202 196 203 194 193 203 210 224 216 206 205 209 213 223 213 212 205 197 205 215 242 242 250 284 268 261 280 277 267 353 355 354 40 286 262 285 148
193 203 207 191 196 198 198 185 202 200 207 209 211 202 203 194 203 206 204 209 214 208 212 218 221 223 227 240 250 277 275 264 258 230 175 213 221 217 217 219 257 278 263
Height
1481 1491 1498 1505 1507 1500 1504 1511 1515 1520 1523 1525 1530 1535 1536 1539 1542 1543 1542 1542 1544 1546 1547 1547 1548 1551 1552 1553 1554 1555 1554 1554 1554 1559 1559 1558 1558 1560 1561 1563 1565 1567 1570
1469 1477 1482 1489 1498 1500 1497 1504 1510 1515 1519 1523 1527 1530 1533 1536 1543 1543 1544 1539 1540 1543 1544 1544 1545 1546 1549 1549 1551 1552 1554 1554 1554 1554 1555 1557 1561 1560 1561 1564 1565 1567 1569
1466 1471 1471 1482 1493 1498 1493 1499 1504 1510 1514 1520 1524 1526 1529 1532 1541 1529 1542 1536 1536 1539 1540 1540 1541 1542 1544 1547 1549 1550 1552 1553 1554 1555 1556 1557 1558 1560 1563 1564 1565 1566 1567
1461 1469 1471 1477 1490 1494 1493 1496 1501 1506 1512 1515 1518 1521 1525 1528 1533 1537 1536 1533 1535 1535 1537 1538 1538 1537 1541 1544 1547 1549 1551 1552 1552 1554 1555 1557 1556 1559 1559 1562 1562 1564 1566
1457 1462 1468 1473 1482 1485 1490 1495 1499 1502 1507 1510 1514 1519 1522 1527 1530 1530 1531 1531 1533 1534 1535 1535 1535 1536 1539 1541 1544 1547 1549 1550 1551 1553 1554 1555 1557 1558 1556 1559 1560 1561 1563
1455 1462 1467 1473 1481 1485 1490 1493 1496 1500 1504 1507 1511 1515 1520 1525 1525 1528 1528 1530 1530 1531 1532 1532 1533 1533 1535 1538 1541 1544 1546 1549 1550 1550 1552 1553 1555 1556 1556 1557 1557 1558 1561
1456 1466 1472 1477 1482 1487 1490 1494 1496 1499 1502 1506 1510 1513 1516 1522 1525 1529 1528 1528 1529 1529 1529 1531 1528 1532 1534 1536 1538 1541 1544 1546 1548 1549 1550 1552 1554 1555 1555 1556 1555 1557 1558
1457 1466 1475 1480 1482 1487 1491 1494 1496 1500 1504 1507 1511 1512 1514 1519 1525 1526 1524 1519 1528 1528 1527 1528 1529 1530 1532 1535 1537 1539 1542 1545 1546 1548 1550 1551 1552 1554 1555 1555 1555 1555 1556
1455 1464 1473 1481 1485 1486 1491 1493 1496 1501 1505 1509 1510 1511 1513 1519 1521 1522 1522 1525 1528 1527 1526 1527 1528 1529 1531 1533 1534 1536 1539 1542 1544 1546 1547 1549 1551 1552 1554 1554 1555 1555 1556
1454 1462 1471 1478 1485 1488 1491 1493 1497 1501 1505 1508 1509 1509 1512 1519 1521 1524 1527 1525 1527 1526 1523 1525 1527 1528 1530 1533 1534 1535 1537 1539 1541 1544 1545 1547 1548 1551 1552 1553 1554 1555 1555
1453 1461 1470 1477 1484 1488 1490 1493 1497 1501 1505 1507 1509 1510 1510 1515 1522 1525 1525 1527 1524 1523 1523 1525 1527 1527 1529 1530 1532 1534 1535 1537 1539 1541 1542 1544 1546 1548 1550 1550 1551 1553 1552
1454 1462 1470 1476 1482 1487 1491 1494 1497 1500 1503 1505 1508 1512 1514 1514 1515 1519 1521 1522 1522 1523 1525 1526 1527 1530 1529 1530 1531 1532 1533 1534 1536 1538 1539 1541 1542 1544 1546 1547 1548 1550 1550
1455 1462 1468 1475 1480 1485 1490 1493 1497 1500 1503 1506 1508 1512 1512 1515 1516 1518 1519 1520 1521 1525 1527 1527 1527 1529 1529 1530 1530 1531 1532 1533 1534 1534 1535 1537 1538 1539 1541 1542 1544 1546 1547
1455 1461 1467 1472 1479 1484 1488 1492 1496 1499 1502 1505 1508 1511 1514 1516 1517 1519 1520 1521 1522 1524 1526 1527 1528 1529 1530 1530 1531 1531 1532 1533 1533 1534 1533 1534 1535 1536 1537 1537 1539 1540 1541
1455 1461 1465 1471 1477 1482 1486 1490 1494 1498 1500 1504 1507 1511 1514 1516 1517 1520 1521 1522 1523 1524 1525 1527 1527 1528 1527 1528 1529 1530 1531 1532 1533 1534 1534 1534 1534 1534 1534 1535 1536 1537 1538
1454 1460 1464 1468 1474 1479 1485 1490 1493 1497 1500 1504 1507 1511 1513 1514 1516 1518 1520 1521 1522 1523 1524 1526 1526 1524 1526 1527 1527 1528 1529 1530 1531 1532 1533 1533 1532 1532 1532 1532 1534 1534 1534
1453 1458 1462 1466 1471 1476 1483 1488 1492 1495 1499 1504 1506 1507 1511 1514 1516 1518 1518 1521 1522 1522 1523 1524 1524 1523 1524 1524 1525 1527 1528 1530 1529 1530 1531 1531 1528 1529 1529 1530 1531 1531 1531
1450 1455 1460 1464 1468 1474 1479 1485 1489 1493 1496 1500 1503 1505 1508 1512 1515 1517 1518 1518 1520 1521 1521 1521 1522 1521 1522 1523 1523 1525 1527 1528 1528 1528 1529 1527 1525 1527 1526 1526 1527 1527 1527
1447 1453 1458 1462 1466 1472 1476 1482 1486 1489 1493 1496 1499 1501 1503 1505 1510 1513 1515 1515 1517 1518 1520 1520 1520 1519 1521 1521 1521 1523 1525 1527 1526 1526 1525 1524 1523 1523 1523 1523 1523 1524 1524
1447 1451 1456 1458 1462 1467 1473 1478 1482 1485 1487 1491 1496 1501 1503 1502 1506 1510 1514 1514 1514 1515 1519 1518 1517 1516 1518 1519 1520 1521 1523 1524 1525 1523 1522 1522 1522 1520 1520 1520 1520 1520 1521
1448 1450 1455 1457 1461 1465 1469 1473 1477 1480 1481 1489 1493 1494 1498 1501 1505 1507 1511 1512 1513 1514 1517 1513 1515 1514 1515 1518 1519 1519 1520 1520 1522 1523 1519 1519 1520 1519 1518 1518 1518 1518 1518
1449 1451 1454 1457 1461 1465 1468 1471 1474 1474 1478 1482 1487 1491 1495 1499 1501 1506 1509 1508 1510 1512 1510 1514 1513 1513 1514 1517 1518 1519 1518 1519 1521 1521 1517 1517 1518 1518 1516 1515 1516 1516 1516
1449 1452 1454 1457 1460 1461 1464 1468 1470 1474 1477 1482 1486 1490 1493 1497 1500 1502 1504 1505 1507 1509 1509 1509 1508 1512 1511 1517 1518 1517 1517 1517 1518 1519 1518 1517 1516 1515 1515 1514 1514 1515 1515
1449 1451 1453 1455 1456 1459 1463 1467 1469 1472 1475 1479 1484 1488 1491 1493 1495 1498 1501 1504 1505 1506 1508 1509 1507 1509 1514 1514 1517 1515 1514 1515 1515 1516 1516 1516 1516 1515 1514 1515 1516 1515 1515
1448 1450 1451 1451 1454 1457 1460 1464 1467 1470 1474 1477 1480 1483 1486 1489 1491 1495 1498 1501 1503 1506 1505 1505 1508 1511 1514 1515 1514 1513 1512 1513 1513 1514 1515 1515 1516 1516 1516 1516 1516 1515 1514
1447 1448 1450 1451 1453 1456 1459 1462 1464 1468 1472 1474 1477 1480 1484 1488 1489 1491 1494 1497 1499 1500 1503 1504 1504 1506 1509 1511 1512 1511 1510 1510 1511 1512 1513 1514 1515 1516 1515 1515 1516 1515 1514